GOES 16

Last updated on Thu Aug 20 2026 00:02:39 GMT+0000 (Coordinated Universal Time)

1 41866U 16071A 26231.53690388 -.00000094 00000+0 00000+0 0 9998 2 41866 0.4900 85.0528 0001148 101.8267 229.5460 1.00273145 35736
UTC large
Height (km)
Speed (km/s)
/
Latitude / Longitude
Inclination (degrees)
Orbital Period (minutes)
Azimuth
Elevation
Range (km)
Doppler Factor

Next 0 passes for location: London (51.5072 / 0.1276)

No passes found over London.
GOES 16